Content
SEND FEEDBACK

Daily
Averages
Monthly
Summary
United States of America

GLEN CANYON CITY, UTAH


Home > North America > United States > Utah
Elevation: 4133 feet     Latitude: 37 05N     Longitude: 111 40W

WEATHER
 
SELECT A DAY
Number of Records: 194,823;   Date Range: 1/1/95 - 8/30/14
 
SHARE

PRINT THIS DATA

[ ← Previous Day ]
WEATHER ALMANAC - JUNE 14, 2013
[ Next Day → ]
[ °C ]   °F
Weather ElementAverageHighLow
Temperature84.2 °F96.1 °F (3:53 pm)66.9 °F (4:53 am)
Dewpoint12.3 °F17.1 °F (4:53 am)6.1 °F (6:53 pm)
Humidity7.3 %15 % (4:53 am)4 % (2:53 pm)
Barometer29.73 in29.81 in (7:53 am)29.62 in (5:53 pm)
Wind Speed5.2 mph11.5 mph (2:53 pm)
Wind Gust17.3 mph (2:53 pm)
Weather ElementAverage
Visibility10 mi
Wind DirectionESE (125.7 °)

Weather ElementTotal
Precipitation---
Cooling Degree Days16.5 (Base 65)
Growing Degree Days31.5 (Base 50)
Averaged from 23 records on June 14, 2013
WEATHER CONDITIONS BREAKOUT
WIND DIRECTION BREAKOUT
WEATHER BY HOUR - JUNE 14, 2013
[ °C ]   °F
Local TimeTemperatureDewpointHumidityBarometerVisibilityWind DirectionWind SpeedGust SpeedPrecipitationEventsConditions
1:53 AM73.0 °F12.0 °F10 %29.75 in10.0 miCalmClear
2:53 AM72.0 °F15.1 °F11 %29.75 in10.0 miSSW (210°)4.6 mphClear
3:53 AM69.1 °F16.0 °F13 %29.75 in10.0 miCalmClear
4:53 AM66.9 °F17.1 °F15 %29.77 in10.0 miCalmClear
5:53 AM72.0 °F17.1 °F12 %29.78 in10.0 miCalmClear
6:53 AM75.9 °F14.0 °F10 %29.79 in10.0 miNW (320°)4.6 mphClear
7:53 AM77.0 °F15.1 °F10 %29.81 in10.0 miCalmClear
8:53 AM80.1 °F16.0 °F9 %29.81 in10.0 miNW (320°)4.6 mphClear
9:53 AM84.9 °F14.0 °F7 %29.80 in10.0 miENE (60°)6.9 mphClear
10:53 AM87.1 °F15.1 °F7 %29.79 in10.0 miVariable6.9 mphClear
11:53 AM89.1 °F14.0 °F6 %29.77 in10.0 miNNW (330°)5.8 mphClear
12:53 PM90.0 °F12.9 °F6 %29.75 in10.0 miNW (320°)6.9 mphClear
1:53 PM93.0 °F12.9 °F5 %29.73 in10.0 miNNE (20°)10.4 mphClear
2:53 PM95.0 °F10.0 °F4 %29.69 in10.0 miNNE (20°)11.5 mph17.3 mphClear
3:53 PM96.1 °F10.0 °F4 %29.67 in10.0 miVariable4.6 mphClear
4:53 PM96.1 °F10.0 °F4 %29.65 in10.0 miENE (60°)8.1 mphClear
5:53 PM96.1 °F9.0 °F4 %29.62 in10.0 miVariable5.8 mphClear
6:53 PM93.0 °F6.1 °F4 %29.63 in10.0 miWest (270°)9.2 mphClear
7:53 PM91.0 °F10.0 °F5 %29.65 in10.0 miWSW (250°)8.1 mphClear
8:53 PM88.0 °F9.0 °F5 %29.67 in10.0 miVariable3.5 mphClear
9:53 PM87.1 °F8.1 °F5 %29.69 in10.0 miWest (270°)5.8 mphClear
10:53 PM84.9 °F9.0 °F6 %29.70 in10.0 miWSW (240°)4.6 mphClear
11:53 PM80.1 °F10.0 °F7 %29.71 in10.0 miSSW (200°)6.9 mphClear
Hourly data recorded from KPGA, located miles away from Glen Canyon City, Utah







STORIES FROM OUR PARTNERS